[[{"header":{"parameterUnit":"m.s-1","parameterCategory":1,"la1":30.2991,"la2":30.254,"lo1":-89.0895,"lo2":-89.0444,"dy":0.0017,"dx":0.0017,"nx":28,"ny":28,"refTime":"2025-07-10T03:00:00:Z","depth":0,"parameterNumber":2,"parameterNumberName":"U-component_of_WINDS"},"data":[0,0,0,0,0,0,0,0,0,0,0,0,0,0,0,0,0,0,0,0,0,0,0,0,0,0,0,0,0,0,0,0,0,0,0,0,0,0,0,0,0,0,0,0,0,0,0,0,0,0,0,0,0,0,0,0,0,0,1.2593,1.2594,0,1.2696,1.2697,1.2698,1.2741,1.2741,1.274,1.274,1.2851,1.2854,1.2857,0,0,0,0,0,0,0,0,0,0,0,0,0,1.2437,1.244,1.2592,1.2594,1.2595,1.2696,1.2697,1.2698,1.2741,1.2741,1.274,1.274,1.285,1.2854,1.2858,0,0,0,0,0,0,0,0,0,0,0,0,0,1.2519,1.2441,1.2592,1.2628,1.2632,1.2695,1.2697,1.2699,1.2741,1.2741,1.274,1.274,1.2849,1.2854,1.2858,1.2895,0,0,1.2873,1.2875,0,0,0,0,0,0,0,0,1.2514,1.2525,1.2622,1.2626,1.2631,1.2705,1.2683,1.2765,1.2741,1.27,1.274,1.274,1.2803,1.2812,1.2832,1.29,1.2905,1.2873,1.2876,1.2878,1.288,0,0,0,0,0,0,0,1.2509,1.252,1.2634,1.2623,1.2629,1.2641,1.2652,1.2699,1.2753,1.2704,1.2707,1.2718,1.2806,1.2827,1.2835,1.2906,1.2873,1.2877,1.288,1.2882,1.301,1.301,0,0,0,0,0,0,1.2496,1.2515,1.263,1.2637,1.257,1.2644,1.2656,1.2682,1.2752,1.2762,1.2718,1.272,1.2819,1.2829,1.2839,1.2887,1.2878,1.2883,1.2885,1.3009,1.301,1.301,0,0,0,0,0,0,1.2493,1.2506,1.2626,1.2577,1.2593,1.2647,1.2675,1.2684,1.2705,1.2763,1.2774,1.273,1.2819,1.2832,1.288,1.2891,1.2885,1.2889,1.3009,1.3009,1.301,1.2982,0,0,0,0,0,0,1.2488,1.2505,1.2518,1.2577,1.2596,1.2664,1.2675,1.2686,1.2713,1.2716,1.2777,1.2787,1.282,1.2873,1.2885,1.2898,1.2893,1.3008,1.3009,1.301,1.2982,1.2981,1.2981,0,0,0,0,0,1.2482,1.2507,1.2518,1.2532,1.2613,1.2664,1.2675,1.2712,1.2713,1.2728,1.2765,1.2785,1.2888,1.2877,1.2891,1.2906,1.3007,1.3009,1.301,1.2982,1.2982,1.2981,0,0,0,0,0,0,1.245,1.2515,1.2529,1.2572,1.2612,1.2671,1.2691,1.271,1.2751,1.2752,1.2797,1.2811,1.2855,1.2885,1.2873,1.2945,1.2949,1.2953,1.2923,1.2923,1.2923,1.2915,1.2897,0,0,0,0,0,1.2447,1.2482,1.2538,1.2571,1.259,1.2637,1.2661,1.2685,1.2729,1.2747,1.2787,1.2831,1.2873,1.29,1.2942,1.2986,1.3001,1.3003,1.3002,1.3002,1.3005,1.3032,1.3034,1.3014,1.3014,1.3014,0,0,1.2443,1.2483,1.2503,1.2566,1.2599,1.2636,1.2651,1.2689,1.2717,1.2753,1.28,1.2831,1.2883,1.2929,1.2952,1.2956,1.3013,1.3003,1.3002,1.3006,1.3033,1.3035,1.3036,1.3015,1.3015,1.3015,0,0,1.2454,1.2487,1.2519,1.2552,1.2602,1.2633,1.264,1.2697,1.2718,1.2766,1.2794,1.2828,1.29,1.2935,1.2963,1.2987,1.3007,1.2999,1.2997,1.3023,1.3024,1.3026,1.3035,1.3038,1.3002,1.3002,1.3002,0,1.2443,1.2497,1.2533,1.2569,1.2597,1.2629,1.2662,1.2693,1.2755,1.2774,1.2777,1.2867,1.2904,1.2959,1.2965,1.2986,1.2997,1.2993,1.3021,1.3023,1.3025,1.3034,1.3037,1.3001,1.3001,1.3001,1.3001,0,1.2482,1.2519,1.2539,1.2596,1.2626,1.266,1.2702,1.2728,1.275,1.2781,1.2829,1.2875,1.2926,1.2941,1.2963,1.3,1.3001,1.3011,1.3017,1.3025,1.3034,1.3038,1.2999,1.2999,1.3,1.3,0,0,1.2477,1.2552,1.2558,1.2585,1.2642,1.2673,1.2709,1.2757,1.2779,1.2821,1.2854,1.2913,1.2923,1.2954,1.298,1.3002,1.3019,1.3011,1.3013,1.3011,1.3064,1.3056,1.3059,1.3033,1.3033,1.3034,1.306,0,1.2496,1.256,1.2593,1.2645,1.268,1.2711,1.2743,1.2782,1.2812,1.2848,1.2882,1.2923,1.2933,1.2952,1.2975,1.3012,1.3031,1.3011,1.3065,1.3067,1.3052,1.3064,1.3056,1.3078,1.3064,1.3064,1.3065,0,1.2528,1.2567,1.2621,1.2674,1.269,1.2718,1.2765,1.2798,1.2844,1.2865,1.2898,1.2924,1.2965,1.2967,1.3025,1.3011,1.3035,1.3057,1.3059,1.3066,1.3067,1.3073,1.3086,1.3089,1.3071,1.307,1.307,0,1.2519,1.2585,1.2626,1.2648,1.2711,1.2729,1.2757,1.2802,1.2829,1.2871,1.289,1.2936,1.2962,1.2999,1.3037,1.3034,1.3092,1.3096,1.3111,1.311,1.3123,1.3121,1.3141,1.3136,1.3136,1.3136,1.3136,0,1.2538,1.257,1.2623,1.2648,1.2686,1.2724,1.276,1.279,1.283,1.2863,1.2893,1.2924,1.2972,1.3009,1.3039,1.3083,1.3095,1.3113,1.3121,1.3111,1.3109,1.3129,1.3128,1.3137,1.3137,1.3137,1.3137,0,1.2535,1.2572,1.2618,1.2673,1.2688,1.2713,1.2761,1.2788,1.2818,1.2859,1.2872,1.2921,1.2966,1.3007,1.3068,1.3088,1.3133,1.3143,1.3117,1.3121,1.3134,1.3133,1.3167,1.3174,1.3164,1.3164,1.3164,0,1.2545,1.257,1.2627,1.265,1.2676,1.2713,1.2741,1.2779,1.2807,1.2861,1.2881,1.2928,1.2968,1.3039,1.3081,1.3128,1.3139,1.3148,1.3147,1.3136,1.3141,1.3139,1.3142,1.3148,1.3148,1.3148,1.3148,0,1.2559,1.2576,1.2613,1.2656,1.2687,1.2724,1.2762,1.278,1.2826,1.2856,1.2901,1.2932,1.2992,1.3039,1.3091,1.3121,1.3143,1.3148,1.3154,1.3144,1.3129,1.3138,1.3117,1.3147,1.3147,1.3147,1.3147,1.3147,1.2564,1.2587,1.2631,1.2672,1.2703,1.2738,1.2765,1.2799,1.2837,1.2888,1.2909,1.2955,1.3002,1.3072,1.3102,1.314,1.3145,1.3153,1.3156,1.3158,1.3156,1.3121,1.315,1.315,1.315,1.315,1.315,0,1.258,1.2609,1.2646,1.2697,1.2729,1.2744,1.2787,1.2813,1.2853,1.2893,1.2931,1.2983,1.3029,1.3074,1.3122,1.3144,1.3155,1.3156,1.3155,1.3162,1.3149,1.3139,1.3146,1.3146,1.3146,1.3146,1.3146,1.3146,1.2592,1.2633,1.2655,1.2713,1.2743,1.2786,1.281,1.2842,1.2874,1.2931,1.2968,1.2996,1.3039,1.309,1.3133,1.3145,1.3162,1.316,1.3175,1.3163,1.3163,1.3163,1.3154,1.3163,1.3163,1.3185,1.3185,1.3185]},{"header":{"parameterUnit":"m.s-1","parameterCategory":1,"la1":30.2991,"la2":30.254,"lo1":-89.0895,"lo2":-89.0444,"dy":0.0017,"dx":0.0017,"nx":28,"ny":28,"refTime":"2025-07-10T03:00:00:Z","depth":0,"parameterNumber":3,"parameterNumberName":"V-component_of_WINDS"},"data":[0,0,0,0,0,0,0,0,0,0,0,0,0,0,0,0,0,0,0,0,0,0,0,0,0,0,0,0,0,0,0,0,0,0,0,0,0,0,0,0,0,0,0,0,0,0,0,0,0,0,0,0,0,0,0,0,0,0,1.9627,1.9626,0,1.9608,1.9608,1.9608,1.9585,1.9585,1.9585,1.9584,1.9565,1.9564,1.9564,0,0,0,0,0,0,0,0,0,0,0,0,0,1.9641,1.9641,1.9627,1.9626,1.9626,1.9608,1.9608,1.9608,1.9585,1.9585,1.9585,1.9584,1.9565,1.9564,1.9564,0,0,0,0,0,0,0,0,0,0,0,0,0,1.963,1.9641,1.9627,1.9613,1.9612,1.9608,1.9608,1.9608,1.9586,1.9585,1.9585,1.9584,1.9565,1.9564,1.9564,1.9573,0,0,1.9563,1.9563,0,0,0,0,0,0,0,0,1.963,1.9629,1.9615,1.9614,1.9612,1.9599,1.9606,1.9596,1.9586,1.9595,1.9584,1.9584,1.9576,1.9575,1.9573,1.9572,1.9571,1.9563,1.9563,1.9563,1.9563,0,0,0,0,0,0,0,1.9631,1.963,1.9619,1.9615,1.9613,1.9607,1.9605,1.9604,1.9589,1.9595,1.9593,1.9591,1.9575,1.9573,1.9572,1.9571,1.9563,1.9563,1.9563,1.9563,1.9574,1.9574,0,0,0,0,0,0,1.9634,1.9631,1.962,1.9619,1.962,1.9607,1.9605,1.9604,1.9589,1.9586,1.9591,1.959,1.9574,1.9572,1.9571,1.9579,1.9563,1.9563,1.9562,1.9573,1.9574,1.9574,0,0,0,0,0,0,1.9635,1.9633,1.9621,1.9624,1.9622,1.9608,1.9606,1.9603,1.9601,1.9587,1.9584,1.9592,1.9573,1.9572,1.9572,1.9578,1.9562,1.9562,1.9573,1.9573,1.9574,1.9595,0,0,0,0,0,0,1.9635,1.9634,1.9637,1.9625,1.9622,1.9622,1.9607,1.9603,1.9601,1.9599,1.9586,1.9584,1.9573,1.9573,1.9572,1.9577,1.9562,1.9572,1.9573,1.9574,1.9594,1.9596,1.9599,0,0,0,0,0,1.9636,1.9644,1.9638,1.9636,1.9626,1.9623,1.9621,1.9609,1.9601,1.9604,1.9595,1.9584,1.9578,1.9573,1.9572,1.9577,1.9572,1.9573,1.9574,1.9593,1.9596,1.9598,0,0,0,0,0,0,1.9658,1.9642,1.9635,1.9639,1.9633,1.9619,1.9623,1.9613,1.9608,1.9606,1.9591,1.9588,1.959,1.9584,1.9579,1.9584,1.9573,1.9574,1.9588,1.959,1.9593,1.9594,1.9562,0,0,0,0,0,1.9663,1.9662,1.9649,1.9654,1.9651,1.9637,1.9635,1.9626,1.9619,1.9616,1.9606,1.9599,1.9595,1.9592,1.9588,1.9593,1.9589,1.9596,1.9598,1.96,1.9601,1.9601,1.9604,1.9578,1.9578,1.9578,0,0,1.9674,1.9666,1.9666,1.9658,1.9652,1.965,1.9635,1.9635,1.9633,1.9615,1.9615,1.9608,1.9598,1.96,1.9601,1.9595,1.9607,1.9602,1.9604,1.9603,1.9603,1.9605,1.9607,1.9579,1.9579,1.9578,0,0,1.9694,1.9688,1.9691,1.9685,1.9675,1.9666,1.9667,1.9654,1.9649,1.9648,1.9635,1.9632,1.9626,1.962,1.9615,1.9631,1.962,1.963,1.9642,1.9643,1.9645,1.9647,1.9651,1.9653,1.9631,1.9631,1.9631,0,1.9708,1.9706,1.9693,1.9693,1.9689,1.9674,1.9676,1.9671,1.966,1.9658,1.9651,1.9643,1.9635,1.9635,1.9638,1.9636,1.9635,1.9631,1.9646,1.9647,1.9649,1.9652,1.9654,1.9632,1.9632,1.9632,1.9632,0,1.9724,1.9723,1.9726,1.9716,1.9713,1.9714,1.9701,1.9699,1.969,1.9681,1.968,1.9671,1.9663,1.9663,1.9654,1.9661,1.9657,1.9649,1.9637,1.9653,1.9656,1.9657,1.9634,1.9633,1.9633,1.9633,0,0,1.9756,1.9739,1.974,1.9735,1.9723,1.9721,1.9721,1.9714,1.9712,1.9706,1.9704,1.9699,1.9691,1.9686,1.9677,1.9677,1.9688,1.9669,1.9668,1.9671,1.9693,1.9699,1.9701,1.9682,1.9682,1.9682,1.9693,0,1.9772,1.9771,1.9759,1.9761,1.9759,1.9744,1.9743,1.9736,1.9727,1.9724,1.9714,1.971,1.9701,1.9697,1.9697,1.9687,1.9692,1.9686,1.9679,1.9679,1.9681,1.9702,1.9709,1.972,1.9695,1.9695,1.9695,0,1.979,1.9784,1.9786,1.9773,1.9772,1.9772,1.9764,1.9761,1.9751,1.9745,1.9739,1.9729,1.9727,1.9717,1.9713,1.9709,1.9705,1.97,1.97,1.9698,1.9687,1.97,1.9723,1.9724,1.9697,1.9697,1.9697,0,1.9811,1.9804,1.9804,1.98,1.9786,1.9786,1.9779,1.9769,1.9766,1.9759,1.9756,1.9749,1.9744,1.9739,1.9726,1.972,1.9723,1.9712,1.9716,1.9717,1.9717,1.9717,1.9739,1.9717,1.9717,1.9717,1.9717,0,1.9829,1.9831,1.9813,1.9813,1.9814,1.98,1.9801,1.9793,1.9784,1.9781,1.9768,1.9766,1.9749,1.9745,1.9735,1.9732,1.9731,1.9725,1.9722,1.9725,1.9726,1.9722,1.972,1.9717,1.9717,1.9717,1.9717,0,1.9853,1.9841,1.984,1.9826,1.9822,1.9823,1.9811,1.981,1.9801,1.9797,1.9796,1.9781,1.9775,1.9762,1.9752,1.9745,1.9745,1.974,1.9748,1.9746,1.975,1.975,1.9769,1.9771,1.9749,1.9749,1.975,0,1.9864,1.9865,1.9851,1.9849,1.9843,1.9839,1.9835,1.9821,1.9817,1.9806,1.9806,1.9799,1.9792,1.9783,1.9771,1.9763,1.9758,1.9765,1.9756,1.9759,1.9756,1.9756,1.9755,1.9767,1.9767,1.9767,1.9768,0,1.9886,1.988,1.9875,1.9867,1.9863,1.9857,1.9849,1.9848,1.9832,1.9828,1.9822,1.9817,1.9807,1.98,1.979,1.9782,1.9772,1.977,1.9771,1.9774,1.9778,1.9774,1.9752,1.977,1.977,1.9769,1.9769,1.9769,1.9902,1.9902,1.9892,1.9886,1.9879,1.9873,1.987,1.9861,1.9856,1.9847,1.9839,1.9833,1.9822,1.9808,1.9801,1.9796,1.9791,1.9792,1.9791,1.9792,1.9792,1.9779,1.9794,1.9794,1.9794,1.9794,1.9794,0,1.9921,1.9914,1.9909,1.99,1.9895,1.9887,1.9878,1.9874,1.9869,1.9861,1.9854,1.9846,1.9839,1.9827,1.9818,1.9816,1.9811,1.9814,1.9813,1.9811,1.9798,1.9798,1.9818,1.9818,1.9818,1.9818,1.9818,1.9818,1.9931,1.9929,1.9922,1.9916,1.9908,1.9903,1.9898,1.9892,1.9885,1.9877,1.9871,1.9863,1.9852,1.9842,1.9835,1.9831,1.9828,1.9832,1.9827,1.9815,1.9812,1.981,1.981,1.9832,1.9832,1.984,1.984,1.9841]}]]